Powrót do katalogu

COSMOS 375 DEB

AktywnyLEO
NORAD 4942·DEBRIS·🇷🇺 Russia

Wystrzelony Oct 30, 1970 z Baikonur Cosmodrome

Loading…

Następne Przeloty (najbliższe 24 godziny)

TLE

ŚwieżeSource: Space-Track

Epoka: Sep 14, 2026, 14:30 UTC

1 04942U 70091AK  26257.60477716 -.00000042  00000-0  31751-4 0  9994
2 04942  63.0968 113.8321 0816264 261.1997  89.5818 12.95849718608663

Śledź COSMOS 375 DEB w czasie rzeczywistym z AllMySat

Download on the App Store